Tel Aviv, Israel

7:27 AM IDT on May 25, 2017 (GMT +0300)
Ben Gurion

Weather History for LLBG - October, 2012

Change the Weather History Date:

Monday, October 29, 2012

  Actual Average Record
Temperature  
Mean Temperature 72 °F -  
Max Temperature 85 °F 74 °F 93 °F (1998)
Min Temperature 59 °F 56 °F 53 °F (2013)
Cooling Degree Days 7    
Growing Degree Days 22 (Base 50)    
Moisture  
Dew Point 53 °F    
Average Humidity 50    
Maximum Humidity 68    
Minimum Humidity 29    
Precipitation  
Precipitation 0.00 in - - ()
Sea Level Pressure  
Sea Level Pressure 29.93 in    
Wind  
Wind Speed 3 mph ()    
Max Wind Speed 8 mph    
Max Gust Speed -    
Visibility 6.0 miles    
Events      
Averages and records for this station are not official NWS values.
T = Trace of Precipitation, MM = Missing Value Source: Averaged Metar Reports

Daily Weather History Graph

Daily Weather History Graph

Search for Another Location

Airport or City:

Trip Planner

Search our weather history database for the weather conditions in past years. The results will help you decide how hot, cold, wet, or windy it might be!

Date:

Astronomy

Oct. 29, 2012 Rise Set
Actual Time 5:54 AM IST 4:53 PM IST
Civil Twilight 5:29 AM IST 5:18 PM IST
Nautical Twilight 5:00 AM IST 5:46 PM IST
Astronomical Twilight 4:32 AM IST 6:15 PM IST
Moon 4:34 PM IST (10/29) 5:24 AM IST (10/29)
Length of Visible Light 11h 48m
Length of Day
10h 58m
Full, 100% of the Moon is Illuminated
Oct 29
Full
Oct 29
Full
Nov 7
Last Quarter
Nov 14
New
Nov 20
First Quarter

Hourly Weather History & Observations

Time (IST) Temp. Heat Index Dew Point Humidity Pressure Visibility Wind Dir Wind Speed Gust Speed Precip Events Conditions
12:50 AM 66.2 °F - 55.4 °F 68% 30.01 in - Variable 1.2 mph - N/A   Clear
1:50 AM 64.4 °F - 53.6 °F 68% 29.98 in - Variable 2.3 mph - N/A   Clear
2:00 AM 65 °F - 54 °F 59% 30.00 in 6 mi 2.3 mph - -  
2:50 AM 64.4 °F - 53.6 °F 68% 29.98 in - East 3.5 mph - N/A   Clear
3:50 AM 62.6 °F - 51.8 °F 68% 29.98 in - East 2.3 mph - N/A   Clear
4:50 AM 60.8 °F - 50.0 °F 68% 29.98 in - East 1.2 mph - N/A   Clear
5:50 AM 60.8 °F - 48.2 °F 63% 29.98 in - East 1.2 mph - N/A   Clear
6:50 AM 62.6 °F - 48.2 °F 59% 29.98 in - Calm Calm - N/A   Clear
7:50 AM 68.0 °F - 50.0 °F 52% 29.98 in - Variable 1.2 mph - N/A   Clear
8:00 AM 69 °F - 51 °F 41% 29.99 in 6 mi 1.2 mph - -  
8:50 AM 75.2 °F - 53.6 °F 47% 29.98 in - Variable 2.3 mph - N/A   Clear
9:50 AM 80.6 °F - 51.8 °F 37% 29.95 in - WNW 3.5 mph - N/A   Clear
10:50 AM 84.2 °F - 48.2 °F 29% 29.95 in - WNW 4.6 mph - N/A   Clear
11:50 AM 82.4 °F 82.0 °F 57.2 °F 42% 29.92 in - West 8.1 mph - N/A   Clear
12:50 PM 82.4 °F 82.9 °F 60.8 °F 48% 29.89 in - West 6.9 mph - N/A   Clear
1:50 PM 84.2 °F 83.8 °F 59.0 °F 42% 29.89 in - West 6.9 mph - N/A   Clear
2:50 PM 82.4 °F 82.0 °F 57.2 °F 42% 29.86 in - West 6.9 mph - N/A   Clear
3:50 PM 82.4 °F 81.7 °F 55.4 °F 39% 29.86 in - WNW 8.1 mph - N/A   Clear
4:50 PM 80.6 °F - 51.8 °F 37% 29.89 in - NW 4.6 mph - N/A   Clear
5:50 PM 78.8 °F - 57.2 °F 47% 29.86 in - East 2.3 mph - N/A   Clear
6:50 PM 77.0 °F - 55.4 °F 47% 29.86 in - East 1.2 mph - N/A   Clear
7:50 PM 73.4 °F - 51.8 °F 47% 29.89 in - East 4.6 mph - N/A   Clear
8:00 PM 73 °F - 51 °F 35% 29.89 in 6 mi East 4.6 mph - -   Clear
8:50 PM 69.8 °F - 50.0 °F 49% 29.89 in - Variable 1.2 mph - N/A   Clear
9:50 PM 69.8 °F - 51.8 °F 53% 29.89 in - South 2.3 mph - N/A   Clear
10:50 PM 69.8 °F - 50.0 °F 49% 29.86 in - ENE 2.3 mph - N/A   Clear
11:50 PM 69.8 °F - 50.0 °F 49% 29.86 in - Calm Calm - N/A   Clear